Aeroporto :
LOGIN :

Iscrizione | Disclaimer

   EN    FR    IT 

 










Sommario :    VFR   VFR Marginale   IFR   IFR Intensivo   IFR Molto Intensivo
Visibilità : 
Base nubi : 
>= 8 km
>= 3000ft
5 / 8 km
1000 / 3000 ft
1500m / 5 km
500 / 1000 ft
800 / 1500m
200 / 500 ft
< 800m
< 200 ft
Simboli :   Temporali  Nebbia  Neve Forte  Precipitazioni Forti  Vento > 20 kt
SIGMETs :   Varie  Temporali  Ghiacco  Turbolenza  Onda orograficha  Ceneri Vulcaniche







- Altitudine del aeroporto : 1058 ft
- Codice IATA : SCN


EDDR - Saarbrücken

ULTIMO METAR :
  • 202250Z 07007KT CAVOK 01/M02 Q1007

METARs OBSOLETI :
  • 202220Z 06007KT CAVOK 02/M01 Q1007
  • 202150Z 08007KT CAVOK 02/M01 Q1007
  • 202120Z 08008KT 060V120 CAVOK 03/M01 Q1008 NOSIG
  • 202050Z 08008KT CAVOK 03/M01 Q1007 NOSIG
  • 202020Z 08006KT 050V110 CAVOK 03/M01 Q1007 NOSIG

TAF TAF EDDR
Valido dal 20 a 18 ore il 21 a 18 ore UTC


201700Z 2018/2118 07009KT 9999 SCT025
Nessun NOTAM noto per questo aeroporto.



MetMap, La meteo Aeronautica in un colpo d'occhio ! - Copyright ORBIFLY Dicembre 2007 - Disclaimer

ORBIFLY MET'MAP TEAM :

Programmazione e sviluppo : Alexandra Zaïnal
Concezione e sviluppo : Baudouin d'Aumeries
Co-Programmazione e sviluppo : Marc-Olivier Méhu
Supporto tecnico e logistico : Manuel Goepfert
Aiuto per la traduzione : Arnaldo La Scala

Contatto : metmap@orbifly.com




FONTI E CREDITI :

   NOAA